Date String (YYYY-MM-DD hh:mm:ss) UTC,Instrument flags,Ambient pressure (hPa),Sample flow (lpm),Bypass flow (lpm),Sample temperature (°C),Ambient temperature (°C),ASC tube jacket temperature (°C),LED temperature (°C),Box temperature (°C),Sample RH (%),Span deviation,Mass concentration (μg/m³),Mass concentration (μg/m³),Mass concentration (μg/m³)
DateTimeUTC,F1_M11,P_M11,Q1_M11,Q2_M11,T1_M11,T2_M11,T3_M11,T4_M11,T5_M11,U1_M11,ZSPAN_M11,X0_M11,X2_M11,X1_M11
2022-10-09 16:00:00,,0833.6,5.01,0.00,28.3,27.1,00.0,37.0,30.2,18.9,0000.0,0011.46,0006.38,0005.98
2022-10-09 16:01:00,,0833.7,4.99,0.00,28.3,27.1,00.0,37.0,30.2,18.7,0000.0,0012.26,0006.45,0006.03
2022-10-09 16:02:00,,0833.6,4.99,0.00,28.3,27.2,00.0,37.0,30.2,18.9,0000.0,0012.31,0006.47,0006.05
2022-10-09 16:03:00,,0833.7,5.01,0.00,28.3,27.2,00.0,37.0,30.2,18.8,0000.0,0012.39,0006.55,0006.08
2022-10-09 16:04:00,,0833.7,5.00,0.00,28.4,27.2,00.0,37.0,30.2,19.0,0000.0,0012.30,0006.56,0006.11
2022-10-09 16:05:00,,0833.7,5.00,0.00,28.4,27.2,00.0,37.0,30.3,19.0,0000.0,0012.49,0006.59,0006.12
2022-10-09 16:06:00,,0833.7,5.01,0.00,28.4,27.2,00.0,37.0,30.3,19.2,0000.0,0012.74,0006.58,0006.10
2022-10-09 16:07:00,,0833.6,5.00,0.00,28.4,27.2,00.0,37.0,30.3,19.3,0000.0,0012.74,0006.58,0006.07
2022-10-09 16:08:00,,0833.7,5.00,0.00,28.4,27.3,00.0,37.1,30.3,19.1,0000.0,0012.33,0006.56,0006.05
2022-10-09 16:09:00,,0833.6,5.01,0.00,28.4,27.3,00.0,37.1,30.3,18.6,0000.0,0012.24,0006.53,0006.02
2022-10-09 16:10:00,,0833.6,5.00,0.00,28.4,27.3,00.0,37.1,30.3,18.5,0000.0,0012.22,0006.50,0005.99
2022-10-09 16:11:00,,0833.7,4.99,0.00,28.4,27.3,00.0,37.1,30.4,18.4,0000.0,0012.07,0006.46,0005.95
2022-10-09 16:12:00,,0833.6,5.00,0.00,28.5,27.3,00.0,37.1,30.4,18.4,0000.0,0010.71,0006.38,0005.90
2022-10-09 16:13:00,,0833.6,5.01,0.00,28.5,27.3,00.0,37.1,30.4,18.4,0000.0,0010.23,0006.30,0005.84
2022-10-09 16:14:00,,0833.6,4.99,0.00,28.5,27.3,00.0,37.1,30.4,18.3,0000.0,0010.04,0006.20,0005.80
2022-10-09 16:15:00,,0833.6,5.00,0.00,28.5,27.4,00.0,37.2,30.4,18.2,0000.0,0010.14,0006.16,0005.75
2022-10-09 16:16:00,,0833.7,5.01,0.00,28.5,27.4,00.0,37.2,30.4,18.0,0000.0,0010.23,0006.10,0005.70
2022-10-09 16:17:00,,0833.7,5.01,0.00,28.5,27.4,00.0,37.2,30.5,18.0,0000.0,0010.02,0006.08,0005.68
2022-10-09 16:18:00,,0833.6,5.00,0.00,28.6,27.4,00.0,37.2,30.5,18.1,0000.0,0009.54,0006.06,0005.65
2022-10-09 16:19:00,,0833.7,5.01,0.00,28.6,27.4,00.0,37.2,30.5,18.6,0000.0,0009.91,0006.04,0005.63
2022-10-09 16:20:00,,0833.6,4.99,0.00,28.6,27.5,00.0,37.2,30.5,18.8,0000.0,0010.43,0006.05,0005.60
2022-10-09 16:21:00,,0833.7,4.99,0.00,28.6,27.5,00.0,37.3,30.5,18.2,0000.0,0010.41,0006.03,0005.58
2022-10-09 16:22:00,,0833.6,5.02,0.00,28.6,27.5,00.0,37.3,30.5,18.0,0000.0,0010.36,0005.99,0005.56
2022-10-09 16:23:00,,0833.6,5.00,0.00,28.6,27.5,00.0,37.3,30.5,17.9,0000.0,0010.69,0005.96,0005.54
2022-10-09 16:24:00,,0833.6,4.99,0.00,28.6,27.5,00.0,37.3,30.5,17.7,0000.0,0010.69,0005.96,0005.53
2022-10-09 16:25:00,,0833.7,5.01,0.00,28.7,27.5,00.0,37.3,30.6,18.0,0000.0,0011.14,0005.98,0005.51
2022-10-09 16:26:00,,0833.7,5.00,0.00,28.7,27.5,00.0,37.3,30.6,17.9,0000.0,0011.21,0005.94,0005.49
2022-10-09 16:27:00,,0833.6,4.99,0.00,28.7,27.6,00.0,37.3,30.6,17.7,0000.0,0011.22,0005.93,0005.49
2022-10-09 16:28:00,,0833.6,5.00,0.00,28.7,27.6,00.0,37.4,30.6,17.6,0000.0,0011.47,0005.93,0005.48
2022-10-09 16:29:00,,0833.6,5.00,0.00,28.7,27.6,00.0,37.4,30.7,17.6,0000.0,0011.43,0005.92,0005.49
2022-10-09 16:30:00,,0833.6,5.00,0.00,28.7,27.6,00.0,37.4,30.7,17.6,0000.0,0011.04,0005.91,0005.48
2022-10-09 16:31:00,,0833.6,5.01,0.00,28.8,27.6,00.0,37.4,30.7,17.6,0000.0,0011.13,0005.89,0005.49
2022-10-09 16:32:00,,0833.6,4.99,0.00,28.8,27.7,00.0,37.4,30.7,17.8,0000.0,0011.32,0005.90,0005.49
2022-10-09 16:33:00,,0833.6,4.99,0.00,28.8,27.7,00.0,37.4,30.7,17.9,0000.0,0011.37,0005.92,0005.49
2022-10-09 16:34:00,,0833.6,5.01,0.00,28.8,27.7,00.0,37.4,30.7,17.9,0000.0,0011.14,0005.94,0005.49
2022-10-09 16:35:00,,0833.6,4.99,0.00,28.8,27.7,00.0,37.5,30.7,18.1,0000.0,0010.94,0005.93,0005.49
2022-10-09 16:36:00,,0833.6,5.01,0.00,28.8,27.7,00.0,37.5,30.8,18.4,0000.0,0010.41,0005.90,0005.48
2022-10-09 16:37:00,,0833.6,4.99,0.00,28.9,27.7,00.0,37.5,30.8,18.6,0000.0,0010.30,0005.95,0005.50
2022-10-09 16:38:00,,0833.6,5.00,0.00,28.9,27.8,00.0,37.5,30.8,18.0,0000.0,0010.06,0006.01,0005.52
2022-10-09 16:39:00,,0833.6,5.01,0.00,28.9,27.8,00.0,37.5,30.8,17.5,0000.0,0009.98,0006.05,0005.55
2022-10-09 16:40:00,,0833.6,4.99,0.00,28.9,27.8,00.0,37.5,30.8,17.4,0000.0,0010.01,0006.06,0005.57
2022-10-09 16:41:00,,0833.6,5.00,0.00,28.9,27.8,00.0,37.6,30.8,17.8,0000.0,0010.11,0006.11,0005.60
2022-10-09 16:42:00,,0833.6,5.00,0.00,29.0,27.9,00.0,37.6,30.8,18.1,0000.0,0009.67,0006.12,0005.64
2022-10-09 16:43:00,,0833.6,5.00,0.00,29.0,27.9,00.0,37.6,30.9,18.0,0001.6,0009.47,0006.17,0005.66
2022-10-09 16:44:00,,0833.6,5.00,0.00,29.0,27.9,00.0,37.6,30.9,17.3,0001.3,0009.52,0006.20,0005.68
2022-10-09 16:45:00,,0833.6,5.00,0.00,29.0,27.9,00.0,37.6,30.9,17.2,0000.6,0009.43,0006.21,0005.69
2022-10-09 16:46:00,,0833.5,5.01,0.00,29.0,27.9,00.0,37.7,31.0,17.5,0000.4,0009.85,0006.24,0005.72
2022-10-09 16:47:00,,0833.5,4.99,0.00,29.0,28.0,00.0,37.7,31.0,17.8,0000.1,0010.18,0006.33,0005.76
2022-10-09 16:48:00,,0833.6,5.01,0.00,29.1,28.0,00.0,37.7,31.0,17.6,0000.4,0010.25,0006.31,0005.77
2022-10-09 16:49:00,,0833.5,4.99,0.00,29.1,28.0,00.0,37.7,31.0,17.0,0000.3,0010.85,0006.34,0005.78
2022-10-09 16:50:00,,0833.5,5.01,0.00,29.1,28.0,00.0,37.7,31.0,16.7,-000.2,0010.78,0006.35,0005.78
2022-10-09 16:51:00,,0833.5,5.00,0.00,29.1,28.0,00.0,37.7,31.0,16.8,-000.1,0010.54,0006.35,0005.79
2022-10-09 16:52:00,,0833.5,4.99,0.00,29.1,28.0,00.0,37.8,31.0,16.8,0000.0,0010.41,0006.33,0005.78
2022-10-09 16:53:00,,0833.5,5.01,0.00,29.1,28.0,00.0,37.8,31.0,16.8,-000.0,0010.48,0006.33,0005.76
2022-10-09 16:54:00,,0833.5,5.02,0.00,29.2,28.1,00.0,37.8,31.0,17.0,0000.0,0010.37,0006.29,0005.75
2022-10-09 16:55:00,,0833.5,5.00,0.00,29.2,28.1,00.0,37.8,31.1,16.9,0000.0,0010.31,0006.26,0005.74
2022-10-09 16:56:00,,0833.5,4.99,0.00,29.2,28.1,00.0,37.8,31.1,16.2,0000.0,0010.32,0006.26,0005.74
2022-10-09 16:57:00,,0833.5,5.02,0.00,29.2,28.1,00.0,37.8,31.1,15.8,0000.0,0010.02,0006.26,0005.73
2022-10-09 16:58:00,,0833.5,4.99,0.00,29.2,28.1,00.0,37.9,31.1,15.7,0000.0,0009.90,0006.23,0005.70
2022-10-09 16:59:00,,0833.5,5.00,0.00,29.3,28.2,00.0,37.9,31.1,15.7,0000.0,0009.76,0006.19,0005.67
